Tegucigalpa, Honduras

1:08 AM CST on December 09, 2016 (GMT -0600)
Toncontin International

Weather History for MHTG - November, 2012

Change the Weather History Date:

Friday, November 16, 2012

  Actual Average Record
Temperature  
Mean Temperature 68 °F -  
Max Temperature 77 °F 76 °F 86 °F (2002)
Min Temperature 59 °F 59 °F 53 °F (1999)
Cooling Degree Days 3    
Growing Degree Days 18 (Base 50)    
Moisture  
Dew Point 62 °F    
Average Humidity 83    
Maximum Humidity 100    
Minimum Humidity 55    
Precipitation  
Precipitation 0.00 in 0.03 in - ()
Sea Level Pressure  
Sea Level Pressure 30.09 in    
Wind  
Wind Speed 10 mph ()    
Max Wind Speed 18 mph    
Max Gust Speed -    
Visibility 5.8 miles    
Events      
Averages and records for this station are not official NWS values.
T = Trace of Precipitation, MM = Missing Value Source: Averaged Metar Reports

Daily Weather History Graph

Daily Weather History Graph

Search for Another Location

Airport or City:

Trip Planner

Search our weather history database for the weather conditions in past years. The results will help you decide how hot, cold, wet, or windy it might be!

Date:

Astronomy

Nov. 16, 2012 Rise Set
Actual Time 5:49 AM CST 5:17 PM CST
Civil Twilight 5:27 AM CST 5:40 PM CST
Nautical Twilight 5:01 AM CST 6:06 PM CST
Astronomical Twilight 4:35 AM CST 6:31 PM CST
Moon 8:36 AM CST (11/16) 8:21 PM CST (11/16)
Length of Visible Light 12h 12m
Length of Day
11h 27m
Waxing Crescent, 12% of the Moon is Illuminated
Nov 16
Waxing Crescent
Nov 20
First Quarter
Nov 28
Full
Dec 6
Last Quarter
Dec 13
New

Hourly Weather History & Observations

Time (CST) Temp. Dew Point Humidity Pressure Visibility Wind Dir Wind Speed Gust Speed Precip Events Conditions
12:00 AM 62 °F 59 °F 87% 30.03 in 6 mi North 9.2 mph - -   Haze
12:00 AM 62.6 °F 59.0 °F 88% 30.15 in 6.2 mi North 9.2 mph - N/A   Partly Cloudy
1:00 AM 60.8 °F 59.0 °F 94% 30.12 in 6.2 mi North 6.9 mph - N/A   Partly Cloudy
2:00 AM 60.8 °F 59.0 °F 94% 30.09 in 6.2 mi NNW 5.8 mph - N/A   Partly Cloudy
3:00 AM 61 °F 60 °F 97% 29.98 in 6 mi North 5.8 mph - -   Haze
3:00 AM 60.8 °F 59.0 °F 94% 30.09 in 6.2 mi North 6.9 mph - N/A   Scattered Clouds
4:00 AM 62.6 °F 62.6 °F 100% 30.09 in 6.2 mi North 8.1 mph - N/A   Mostly Cloudy
5:00 AM 62.6 °F 62.6 °F 100% 30.09 in 6.2 mi NNE 9.2 mph - N/A   Mostly Cloudy
6:00 AM 62.6 °F 62.6 °F 100% 30.09 in 3.1 mi North 11.5 mph - N/A   Mostly Cloudy
7:00 AM 64.4 °F 62.6 °F 94% 30.12 in 3.1 mi North 11.5 mph - N/A   Mostly Cloudy
7:40 AM 64.4 °F 64.4 °F 100% 30.15 in 1.9 mi North 11.5 mph - N/A   Light Drizzle
8:00 AM 64.4 °F 64.4 °F 100% 30.15 in 3.7 mi North 12.7 mph - N/A   Light Drizzle
9:00 AM 66.2 °F 64.4 °F 94% 30.18 in 4.3 mi North 11.5 mph - N/A   Mostly Cloudy
10:00 AM 68.0 °F 62.6 °F 83% 30.18 in 5.0 mi North 15.0 mph - N/A   Scattered Clouds
11:00 AM 71.6 °F 62.6 °F 73% 30.15 in 6.2 mi North 16.1 mph - N/A   Scattered Clouds
12:00 PM 75 °F 63 °F 58% 29.94 in 7 mi North 18.4 mph - -   Haze
12:00 PM 75.2 °F 62.6 °F 65% 30.12 in 6.2 mi North 18.4 mph - N/A   Scattered Clouds
1:00 PM 77.0 °F 64.4 °F 65% 30.09 in 6.2 mi North 15.0 mph - N/A   Scattered Clouds
2:00 PM 77.0 °F 62.6 °F 61% 30.06 in 6.2 mi North 13.8 mph - N/A   Scattered Clouds
3:00 PM 75 °F 62 °F 55% 29.85 in 9 mi North 18.4 mph - -   Haze
3:00 PM 75.2 °F 62.6 °F 65% 30.04 in 6.2 mi North 18.4 mph - N/A   Mostly Cloudy
4:00 PM 73.4 °F 62.6 °F 69% 30.04 in 6.2 mi North 18.4 mph - N/A   Mostly Cloudy
5:00 PM 69.8 °F 59.0 °F 68% 29.89 in 6.2 mi North 13.8 mph - N/A   Mostly Cloudy
6:00 PM 68.0 °F 60.8 °F 78% 30.09 in 6.2 mi North 9.2 mph - N/A   Mostly Cloudy
7:00 PM 66.2 °F 60.8 °F 83% 30.09 in 6.2 mi NE 11.5 mph - N/A   Mostly Cloudy
8:00 PM 66.2 °F 60.8 °F 83% 30.15 in 6.2 mi NE 9.2 mph - N/A   Scattered Clouds
9:00 PM - - N/A% 30.15 in 6.2 mi North 9.2 mph - N/A   Partly Cloudy
10:00 PM 62.6 °F 60.8 °F 94% 30.15 in 6.2 mi North 9.2 mph - N/A   Partly Cloudy
11:00 PM 62.6 °F 59.0 °F 88% 30.15 in 6.2 mi North 8.1 mph - N/A   Partly Cloudy